{"data":{"norad_id":67840,"intl_designator":"2026-033V","name":"STARLINK-36651","alt_names":[],"object_type":"PAYLOAD","status":"ACTIVE","operator":null,"country":"US","launch_date":"2026-02-16","launch_site_code":"AFETR","launch_vehicle":null,"mission":null,"orbit_class":"UNKNOWN","rcs_meters":null,"size_class":null,"mass_kg":null,"dimensions":null,"purposes":["comms"],"wikipedia_slug":null,"has_3d_model":false,"image_url":null,"decayed_at":null,"tle_current":{"epoch":"2026-05-24T20:44:37.526208Z","epoch_age_seconds":93729,"freshness":"FRESH","line1":"1 67840U 26033V   26144.86432322  .00011430  00000+0  42414-3 0  9992","line2":"2 67840  43.0019 196.8805 0001889 275.9602  84.1034 15.27587086 16329","mean_motion":15.27587086,"eccentricity":0.0001889,"inclination_deg":43.0019,"raan_deg":196.8805,"arg_perigee_deg":275.9602,"mean_anomaly_deg":84.1034,"bstar":0.00042414,"rev_number":1632,"period_min":94.266311439609,"perigee_km":481.73180404303,"apogee_km":484.32395213397,"semimajor_km":6861.1648780885,"source":"CELESTRAK","updated_at":"2026-05-25T13:38:21.701507Z"}}}